        P/1819 W1 = 2003 WY25 (Blanpain)
    Epoch 1866 Nov. 15.0 TT = JDT 2402920.5
    T 1866 Nov. 26.42899 TT                                 MPC
    q   0.9301962            (2000.0)            P               Q
    n   0.18755922     Peri.  353.76735     +0.31721249     -0.93386479
    a   3.0225752      Node    77.64597     +0.87723610     +0.22277800
    e   0.6922504      Incl.    9.73314     +0.36032355     +0.27976154
    P   5.25
    From 275 observations 1819 Dec. 14-2013 July 6, mean residual 0".77.
       Assumed non-gravitational parameters A1 = +0.10 +/- 0.00,
       A2 = -0.0054 +/- 0.0001 due to S. Nakano.
    
        P/1819 W1 = 2003 WY25 (Blanpain)
    Epoch 1861 July 4.0 TT = JDT 2400960.5
    T 1861 July 21.66810 TT                                 MPC
    q   0.9855147            (2000.0)            P               Q
    n   0.18334656     Peri.  352.73936     +0.32690241     -0.93061623
    a   3.0686984      Node    78.07291     +0.87531108     +0.23248726
    e   0.6788493      Incl.    9.68415     +0.35632194     +0.28267137
    P   5.38
    From 275 observations 1819 Dec. 14-2013 July 6, mean residual 0".77.
       Assumed non-gravitational parameters A1 = +0.10 +/- 0.00,
       A2 = -0.0054 +/- 0.0001 due to S. Nakano.
    
        P/1819 W1 = 2003 WY25 (Blanpain)
    Epoch 1856 Feb. 21.0 TT = JDT 2399000.5
    T 1856 Mar. 4.36598 TT                                  MPC
    q   0.9847594            (2000.0)            P               Q
    n   0.18341835     Peri.  352.65554     +0.32765147     -0.93034424
    a   3.0678976      Node    78.11000     +0.87516628     +0.23320378
    e   0.6790116      Incl.    9.68567     +0.35598946     +0.28297630
    P   5.37
    From 275 observations 1819 Dec. 14-2013 July 6, mean residual 0".77.
       Assumed non-gravitational parameters A1 = +0.10 +/- 0.00,
       A2 = -0.0054 +/- 0.0001 due to S. Nakano.
    
        P/1819 W1 = 2003 WY25 (Blanpain)
    Epoch 1850 Nov. 19.0 TT = JDT 2397080.5
    T 1850 Nov. 2.08461 TT                                  MPC
    q   0.8857293            (2000.0)            P               Q
    n   0.19081638     Peri.  349.88250     +0.34388033     -0.92559060
    a   2.9880804      Node    79.86682     +0.87236844     +0.25256794
    e   0.7035792      Incl.    9.24813     +0.34744730     +0.28194233
    P   5.17
    From 275 observations 1819 Dec. 14-2013 July 6, mean residual 0".77.
       Assumed non-gravitational parameters A1 = +0.10 +/- 0.00,
       A2 = -0.0054 +/- 0.0001 due to S. Nakano.
    
        P/1819 W1 = 2003 WY25 (Blanpain)
    Epoch 1845 Aug. 17.0 TT = JDT 2395160.5
    T 1845 Sept. 2.58862 TT                                 MPC
    q   0.8823964            (2000.0)            P               Q
    n   0.19109026     Peri.  349.83850     +0.34432386     -0.92539921
    a   2.9852246      Node    79.88288     +0.87227395     +0.25293759
    e   0.7044121      Incl.    9.25680     +0.34724522     +0.28223906
    P   5.16
    From 275 observations 1819 Dec. 14-2013 July 6, mean residual 0".77.
       Assumed non-gravitational parameters A1 = +0.10 +/- 0.00,
       A2 = -0.0054 +/- 0.0001 due to S. Nakano.
    
        P/1819 W1 = 2003 WY25 (Blanpain)
    Epoch 1840 June 24.0 TT = JDT 2393280.5
    T 1840 July  9.33322 TT                                 MPC
    q   0.8796025            (2000.0)            P               Q
    n   0.19133929     Peri.  349.85499     +0.34417413     -0.92544613
    a   2.9826339      Node    79.87567     +0.87231112     +0.25277020
    e   0.7050920      Incl.    9.26003     +0.34730028     +0.28223517
    P   5.15
    From 275 observations 1819 Dec. 14-2013 July 6, mean residual 0".77.
       Assumed non-gravitational parameters A1 = +0.10 +/- 0.00,
       A2 = -0.0054 +/- 0.0001 due to S. Nakano.
    
        P/1819 W1 = 2003 WY25 (Blanpain)
    Epoch 1835 May 2.0 TT = JDT 2391400.5
    T 1835 May 17.96685 TT                                  MPC
    q   0.8770483            (2000.0)            P               Q
    n   0.19160912     Peri.  349.87076     +0.34403116     -0.92547698
    a   2.9798331      Node    79.86861     +0.87235192     +0.25257798
    e   0.7056720      Incl.    9.26792     +0.34733945     +0.28230608
    P   5.14
    From 275 observations 1819 Dec. 14-2013 July 6, mean residual 0".77.
       Assumed non-gravitational parameters A1 = +0.10 +/- 0.00,
       A2 = -0.0054 +/- 0.0001 due to S. Nakano.
    
        P/1819 W1 = 2003 WY25 (Blanpain)
    Epoch 1830 Mar. 9.0 TT = JDT 2389520.5
    T 1830 Mar. 24.23586 TT                                 MPC
    q   0.8815643            (2000.0)            P               Q
    n   0.19117113     Peri.  349.85600     +0.34394560     -0.92554896
    a   2.9843827      Node    79.88881     +0.87237960     +0.25260699
    e   0.7046075      Incl.    9.25349     +0.34735467     +0.28204403
    P   5.16
    From 275 observations 1819 Dec. 14-2013 July 6, mean residual 0".77.
       Assumed non-gravitational parameters A1 = +0.10 +/- 0.00,
       A2 = -0.0054 +/- 0.0001 due to S. Nakano.
    
        P/1819 W1 = 2003 WY25 (Blanpain)
    Epoch 1825 Jan. 14.0 TT = JDT 2387640.5
    T 1825 Jan. 24.14841 TT                                 MPC
    q   0.8882944            (2000.0)            P               Q
    n   0.19055820     Peri.  349.82859     +0.34399374     -0.92558150
    a   2.9907787      Node    79.91344     +0.87237104     +0.25278952
    e   0.7029889      Incl.    9.23537     +0.34732849     +0.28177356
    P   5.17
    From 275 observations 1819 Dec. 14-2013 July 6, mean residual 0".77.
       Assumed non-gravitational parameters A1 = +0.10 +/- 0.00,
       A2 = -0.0054 +/- 0.0001 due to S. Nakano.
    
        P/1819 W1 = 2003 WY25 (Blanpain)
    Epoch 1819 Nov. 22.0 TT = JDT 2385760.5
    T 1819 Nov. 20.27445 TT                                 MPC
    q   0.8905627            (2000.0)            P               Q
    n   0.19030900     Peri.  349.75148     +0.34454499     -0.92539582
    a   2.9933890      Node    79.95608     +0.87225516     +0.25338874
    e   0.7024902      Incl.    9.22745     +0.34707302     +0.28184520
    P   5.18
    From 275 observations 1819 Dec. 14-2013 July 6, mean residual 0".77.
       Assumed non-gravitational parameters A1 = +0.10 +/- 0.00,
       A2 = -0.0054 +/- 0.0001 due to S. Nakano.
    
        P/1819 W1 = 2003 WY25 (Blanpain)
    Epoch 1819 Nov. 22.0 TT = JDT 2385760.5
    T 1819 Nov. 20.27445 TT                                 MPC
    q   0.8905627            (2000.0)            P               Q
    n   0.19030900     Peri.  349.75148     +0.34454499     -0.92539582
    a   2.9933890      Node    79.95608     +0.87225516     +0.25338874
    e   0.7024902      Incl.    9.22745     +0.34707302     +0.28184520
    P   5.18
    From 275 observations 1819 Dec. 14-2013 July 6, mean residual 0".77.
       Assumed non-gravitational parameters A1 = +0.10 +/- 0.00,
       A2 = -0.0054 +/- 0.0001 due to S. Nakano.
    
